START_TIME,STEP,MOV.,AL01,t_acc.,AL02,t_acc.,E37,t_acc.,H21,t_acc.
1979-08-01 12:00:33.190 ,0,0,0.,24.0,0.,24.0,3.,24.0,0.,24.0
1979-08-01 12:01:45.190 ,0,0,1.,24.0,0.,24.0,0.,24.0,0.,24.0
1979-08-01 12:02:09.190 ,0,0,0.,24.0,0.,24.0,1.,24.0,0.,24.0
1979-08-01 12:02:33.190 ,3,1,0.,24.0,0.,24.0,1.,24.0,0.,24.0
1979-08-01 12:02:57.190 ,3,0,0.,24.0,0.,24.0,1.,24.0,0.,24.0
1979-08-01 12:03:21.190 ,4,1,0.,24.0,0.,24.0,2.,24.0,0.,24.0
1979-08-01 12:03:45.190 ,4,0,0.,24.0,0.,24.0,2.,24.0,0.,24.0
1979-08-01 12:04:09.190 ,5,1,0.,24.0,0.,24.0,3.,24.0,0.,24.0
1979-08-01 12:04:33.190 ,5,0,,0,,0,,0,,0
1979-08-01 12:04:57.190 ,6,1,0.,24.0,0.,24.0,2.,24.0,0.,24.0
1979-08-01 12:05:21.190 ,6,0,0.,24.0,0.,24.0,1.,24.0,0.,24.0
1979-08-01 12:05:45.190 ,7,1,6.,24.0,0.,24.0,1.,24.0,0.,24.0
1979-08-01 12:06:09.190 ,7,0,30.,24.0,0.,24.0,1.,24.0,0.,24.0
1979-08-01 12:07:21.190 ,0,0,19.,24.0,0.,24.0,1.,24.0,0.,24.0
1979-08-01 12:07:45.190 ,0,0,0.,24.0,0.,24.0,1.,24.0,0.,24.0
1979-08-01 12:08:09.190 ,5,1,1.,24.0,0.,24.0,4.,24.0,0.,24.0
1979-08-01 12:08:33.190 ,5,0,0.,24.0,0.,24.0,0.,24.0,0.,24.0
1979-08-01 12:08:57.190 ,4,1,0.,24.0,1.,24.0,1.,24.0,0.,24.0
1979-08-01 12:09:21.190 ,4,0,0.,24.0,0.,24.0,0.,24.0,0.,24.0
1979-08-01 12:09:45.190 ,3,1,0.,24.0,0.,24.0,2.,24.0,0.,24.0
1979-08-01 12:10:09.190 ,3,0,0.,24.0,0.,24.0,0.,24.0,0.,24.0
1979-08-01 12:10:33.190 ,2,1,0.,24.0,0.,24.0,1.,24.0,0.,24.0
1979-08-01 12:10:57.190 ,2,0,0.,24.0,0.,24.0,1.,24.0,0.,24.0
1979-08-01 12:11:21.190 ,0,0,0.,24.0,0.,24.0,1.,24.0,0.,24.0
1979-08-01 12:11:45.190 ,0,0,0.,24.0,0.,24.0,0.,24.0,0.,24.0
1979-08-01 12:12:09.190 ,0,1,0.,24.0,0.,24.0,3.,24.0,0.,24.0
1979-08-01 12:12:33.190 ,0,0,0.,24.0,0.,24.0,5.,24.0,0.,24.0
1979-08-01 12:12:57.190 ,0,1,0.,24.0,0.,24.0,0.,24.0,0.,24.0
1979-08-01 12:13:21.190 ,0,0,0.,24.0,0.,24.0,2.,24.0,0.,24.0
1979-08-01 12:13:45.190 ,1,1,0.,24.0,0.,24.0,2.,24.0,0.,24.0
1979-08-01 12:14:09.190 ,1,0,1.,24.0,0.,24.0,1.,24.0,0.,24.0
1979-08-01 12:14:33.190 ,2,1,0.,24.0,0.,24.0,1.,24.0,0.,24.0
1979-08-01 12:14:57.190 ,2,0,0.,24.0,0.,24.0,1.,24.0,0.,24.0
1979-08-01 12:15:21.190 ,3,1,0.,24.0,0.,24.0,0.,24.0,0.,24.0
1979-08-01 12:15:45.190 ,3,0,1.,24.0,0.,24.0,0.,24.0,0.,24.0
1979-08-01 12:16:09.190 ,4,1,0.,24.0,0.,24.0,0.,24.0,0.,24.0
1979-08-01 12:16:33.190 ,4,0,0.,24.0,0.,24.0,1.,24.0,0.,24.0
1979-08-01 12:16:57.190 ,5,1,1.,24.0,0.,24.0,1.,24.0,0.,24.0
1979-08-01 12:17:21.190 ,5,0,0.,24.0,1.,24.0,0.,24.0,0.,24.0
1979-08-01 12:17:45.190 ,6,1,0.,24.0,0.,24.0,1.,24.0,0.,24.0
1979-08-01 12:18:09.190 ,6,0,2.,24.0,0.,24.0,0.,24.0,0.,24.0
1979-08-01 12:18:33.190 ,0,0,0.,24.0,0.,24.0,0.,24.0,0.,24.0
1979-08-01 12:18:57.190 ,0,0,2.,24.0,1.,24.0,1.,24.0,2.,24.0
1979-08-01 12:19:21.190 ,0,0,21.,24.0,0.,24.0,1.,24.0,0.,24.0
1979-08-01 12:19:45.190 ,1,1,0.,24.0,1.,24.0,1.,24.0,0.,24.0
1979-08-01 12:20:09.190 ,2,1,0.,24.0,0.,24.0,2.,24.0,0.,24.0
1979-08-01 12:20:33.190 ,6,1,0.,24.0,0.,24.0,0.,24.0,0.,24.0
1979-08-01 12:20:57.190 ,5,1,15.,24.0,0.,24.0,2.,24.0,0.,24.0
1979-08-01 12:21:21.190 ,1,1,0.,24.0,0.,24.0,0.,24.0,0.,24.0
1979-08-01 12:21:45.190 ,2,1,0.,24.0,0.,24.0,1.,24.0,0.,24.0
1979-08-01 12:22:09.190 ,0,0,1.,24.0,0.,24.0,1.,24.0,0.,24.0
1979-08-01 12:22:33.190 ,5,1,13.,24.0,0.,24.0,0.,24.0,0.,24.0
1979-08-01 12:22:57.190 ,1,1,0.,24.0,0.,24.0,1.,24.0,0.,24.0
1979-08-01 12:23:21.190 ,2,1,0.,24.0,0.,24.0,1.,24.0,0.,24.0
1979-08-01 12:23:45.190 ,6,1,0.,24.0,0.,24.0,1.,24.0,0.,24.0
1979-08-01 12:24:09.190 ,5,1,15.,24.0,0.,24.0,0.,24.0,0.,24.0
1979-08-01 12:24:33.190 ,1,1,0.,24.0,0.,24.0,2.,24.0,0.,24.0
1979-08-01 12:24:57.190 ,2,1,1.,24.0,0.,24.0,0.,24.0,0.,24.0
1979-08-01 12:25:21.190 ,6,1,1.,24.0,0.,24.0,1.,24.0,0.,24.0
1979-08-01 12:25:45.190 ,5,1,13.,24.0,0.,24.0,2.,24.0,0.,24.0
1979-08-01 12:26:09.190 ,1,1,0.,24.0,0.,24.0,1.,24.0,0.,24.0
1979-08-01 12:27:21.190 ,0,0,19.,24.0,0.,24.0,0.,24.0,0.,24.0
1979-08-01 12:27:45.190 ,1,1,0.,24.0,0.,24.0,0.,24.0,0.,24.0
1979-08-01 12:28:09.190 ,2,1,0.,24.0,0.,24.0,1.,24.0,0.,24.0
1979-08-01 12:28:33.190 ,7,1,,0,,0,,0,,0
1979-08-01 12:28:57.190 ,5,1,17.,24.0,0.,24.0,0.,24.0,0.,24.0
1979-08-01 12:29:21.190 ,1,1,1.,24.0,0.,24.0,0.,24.0,0.,24.0
1979-08-01 12:29:45.190 ,0,0,0.,24.0,0.,24.0,1.,24.0,0.,24.0
1979-08-01 12:30:09.190 ,0,0,0.,24.0,0.,24.0,1.,24.0,0.,24.0
1979-08-01 12:30:33.190 ,5,1,9.,24.0,0.,24.0,0.,24.0,0.,24.0
1979-08-01 12:30:57.190 ,5,0,0.,24.0,0.,24.0,4.,24.0,0.,24.0
1979-08-01 12:31:21.190 ,4,1,0.,24.0,0.,24.0,1.,24.0,0.,24.0
1979-08-01 12:31:45.190 ,4,0,0.,24.0,0.,24.0,0.,24.0,0.,24.0
1979-08-01 12:32:09.190 ,3,1,0.,24.0,0.,24.0,3.,24.0,0.,24.0
1979-08-01 12:32:33.190 ,3,0,0.,24.0,0.,24.0,0.,24.0,0.,24.0
1979-08-01 12:32:57.190 ,2,1,1.,24.0,0.,24.0,1.,24.0,0.,24.0
1979-08-01 12:33:21.190 ,0,0,0.,24.0,0.,24.0,2.,24.0,0.,24.0
1979-08-01 12:33:51.190 ,0,0,0.,24.0,0.,24.0,0.,24.0,0.,24.0
1979-08-01 12:34:09.190 ,0,0,0.,24.0,0.,24.0,2.,24.0,0.,24.0
1979-08-01 12:34:33.190 ,0,1,0.,24.0,0.,24.0,0.,24.0,0.,24.0
1979-08-01 12:34:57.190 ,0,0,0.,24.0,0.,24.0,1.,24.0,0.,24.0
1979-08-01 12:35:21.190 ,0,1,0.,24.0,0.,24.0,1.,24.0,0.,24.0
1979-08-01 12:35:45.190 ,0,0,0.,24.0,0.,24.0,1.,24.0,0.,24.0
1979-08-01 12:36:09.190 ,1,1,0.,24.0,0.,24.0,1.,24.0,0.,24.0
1979-08-01 12:36:33.190 ,1,0,0.,24.0,0.,24.0,0.,24.0,0.,24.0
1979-08-01 12:36:57.190 ,2,1,0.,24.0,0.,24.0,0.,24.0,0.,24.0
1979-08-01 12:37:21.190 ,2,0,0.,24.0,0.,24.0,0.,24.0,0.,24.0
1979-08-01 12:37:45.190 ,3,1,1.,24.0,0.,24.0,1.,24.0,0.,24.0
1979-08-01 12:38:09.190 ,3,0,0.,24.0,0.,24.0,1.,24.0,0.,24.0
1979-08-01 12:38:33.190 ,4,1,1.,24.0,0.,24.0,0.,24.0,0.,24.0
1979-08-01 12:38:57.190 ,4,0,0.,24.0,1.,24.0,1.,24.0,1.,24.0
1979-08-01 12:39:21.190 ,5,1,0.,24.0,0.,24.0,0.,24.0,0.,24.0
1979-08-01 12:39:45.190 ,5,0,0.,24.0,0.,24.0,0.,24.0,0.,24.0
1979-08-01 12:40:09.190 ,6,1,0.,24.0,0.,24.0,1.,24.0,0.,24.0
1979-08-01 12:40:33.190 ,6,0,0.,24.0,0.,24.0,3.,24.0,0.,24.0
1979-08-01 12:40:57.190 ,7,1,10.,24.0,0.,24.0,0.,24.0,0.,24.0
1979-08-01 12:41:21.190 ,7,0,33.,24.0,0.,24.0,1.,24.0,0.,24.0
1979-08-01 12:41:45.190 ,7,1,29.,24.0,0.,24.0,1.,24.0,0.,24.0
1979-08-01 12:42:09.190 ,7,0,31.,24.0,0.,24.0,0.,24.0,0.,24.0
1979-08-01 12:42:33.190 ,6,1,17.,24.0,0.,24.0,1.,24.0,0.,24.0
1979-08-01 12:42:57.190 ,6,0,0.,24.0,0.,24.0,0.,24.0,0.,24.0
1979-08-01 12:55:21.190 ,0,0,25.,24.0,0.,24.0,0.,24.0,0.,24.0
1979-08-01 12:55:45.190 ,0,0,0.,24.0,0.,24.0,1.,24.0,0.,24.0
1979-08-01 12:56:09.190 ,5,1,0.,24.0,1.,24.0,0.,24.0,0.,24.0
1979-08-01 12:56:33.190 ,5,0,0.,24.0,0.,24.0,3.,24.0,0.,24.0
1979-08-01 12:56:57.190 ,4,1,0.,24.0,0.,24.0,2.,24.0,0.,24.0
1979-08-01 12:57:21.190 ,4,0,0.,24.0,0.,24.0,1.,24.0,0.,24.0
1979-08-01 12:57:45.190 ,3,1,0.,24.0,0.,24.0,0.,24.0,0.,24.0
1979-08-01 12:58:09.190 ,3,0,0.,24.0,0.,24.0,2.,24.0,0.,24.0
1979-08-01 12:59:21.190 ,0,0,0.,24.0,0.,24.0,0.,24.0,0.,24.0
1979-08-01 12:59:45.190 ,0,0,0.,24.0,0.,24.0,1.,24.0,0.,24.0
1979-08-01 13:00:09.190 ,0,1,1.,24.0,1.,24.0,0.,24.0,0.,24.0
1979-08-01 13:00:33.190 ,0,0,0.,24.0,0.,24.0,1.,24.0,0.,24.0
1979-08-01 13:00:57.190 ,0,1,0.,24.0,0.,24.0,3.,24.0,0.,24.0
1979-08-01 13:01:21.190 ,0,0,0.,24.0,0.,24.0,1.,24.0,0.,24.0
1979-08-01 13:01:45.190 ,1,1,0.,24.0,0.,24.0,1.,24.0,0.,24.0
1979-08-01 13:02:09.190 ,1,0,0.,24.0,0.,24.0,0.,24.0,0.,24.0
1979-08-01 13:02:33.190 ,2,1,0.,24.0,0.,24.0,0.,24.0,0.,24.0
1979-08-01 13:02:57.190 ,2,0,0.,24.0,0.,24.0,1.,24.0,0.,24.0
1979-08-01 13:03:21.190 ,0,0,0.,24.0,0.,24.0,2.,24.0,0.,24.0
1979-08-01 13:03:45.190 ,0,0,0.,24.0,0.,24.0,0.,24.0,0.,24.0
1979-08-01 13:04:09.190 ,4,1,1.,24.0,0.,24.0,0.,24.0,0.,24.0
1979-08-01 13:04:33.190 ,4,0,0.,24.0,0.,24.0,3.,24.0,0.,24.0
1979-08-01 13:04:57.190 ,5,1,0.,24.0,0.,24.0,1.,24.0,0.,24.0
1979-08-01 13:05:21.190 ,5,0,0.,24.0,0.,24.0,1.,24.0,0.,24.0
1979-08-01 13:05:45.190 ,0,0,,0,,0,,0,,0
1979-08-01 13:06:09.190 ,0,0,,0,,0,,0,,0
1979-08-01 13:06:33.190 ,7,0,11.,24.0,1.,24.0,0.,24.0,0.,24.0
1979-08-01 13:06:57.190 ,7,0,31.,24.0,0.,24.0,0.,24.0,0.,24.0
1979-08-01 13:07:21.190 ,5,1,12.,24.0,0.,24.0,3.,24.0,0.,24.0
1979-08-01 13:07:45.190 ,1,1,1.,24.0,0.,24.0,0.,24.0,0.,24.0
1979-08-01 13:09:57.190 ,0,0,,0,,0,,0,,0
1979-08-01 13:10:09.190 ,6,1,0.,24.0,0.,24.0,0.,24.0,0.,24.0
1979-08-01 13:10:33.190 ,5,1,12.,24.0,0.,24.0,2.,24.0,0.,24.0
1979-08-01 13:10:57.190 ,2,1,,0,,0,,0,,0
1979-08-01 13:11:21.190 ,2,1,0.,24.0,0.,24.0,1.,24.0,0.,24.0
1979-08-01 13:11:45.190 ,0,0,0.,24.0,1.,24.0,1.,24.0,0.,24.0
1979-08-01 13:12:10.390 ,5,1,14.,24.0,0.,24.0,1.,24.0,0.,24.0
1979-08-01 13:12:33.190 ,1,1,0.,24.0,0.,24.0,2.,24.0,0.,24.0
1979-08-01 13:12:57.190 ,2,1,0.,24.0,0.,24.0,0.,24.0,0.,24.0
1979-08-01 13:13:21.190 ,6,1,3.,24.0,0.,24.0,1.,24.0,0.,24.0
1979-08-01 13:13:45.190 ,3,1,,0,,0,,0,,0
1979-08-01 13:14:09.190 ,1,1,1.,24.0,0.,24.0,1.,24.0,0.,24.0
1979-08-01 13:14:33.190 ,2,1,0.,24.0,0.,24.0,0.,24.0,0.,24.0
1979-08-01 13:14:57.190 ,6,1,0.,24.0,1.,24.0,0.,24.0,0.,24.0
1979-08-01 13:15:21.190 ,5,1,10.,24.0,0.,24.0,2.,24.0,0.,24.0
1979-08-01 13:15:45.190 ,1,1,1.,24.0,0.,24.0,0.,24.0,0.,24.0
1979-08-01 13:16:09.190 ,2,1,1.,24.0,1.,24.0,2.,24.0,0.,24.0
1979-08-01 13:16:33.190 ,6,1,1.,24.0,0.,24.0,0.,24.0,0.,24.0
1979-08-01 13:16:57.190 ,5,1,21.,24.0,0.,24.0,3.,24.0,0.,24.0
1979-08-01 13:17:21.190 ,1,1,1.,24.0,0.,24.0,1.,24.0,0.,24.0
1979-08-01 13:17:45.190 ,0,0,0.,24.0,1.,24.0,0.,24.0,0.,24.0
1979-08-01 13:18:09.190 ,0,0,0.,24.0,0.,24.0,2.,24.0,0.,24.0
1979-08-01 13:18:33.190 ,5,1,20.,24.0,0.,24.0,1.,24.0,0.,24.0
1979-08-01 13:18:57.190 ,5,0,0.,24.0,0.,24.0,2.,24.0,0.,24.0
1979-08-01 13:19:21.190 ,4,1,0.,24.0,0.,24.0,0.,24.0,0.,24.0
1979-08-01 13:19:45.190 ,4,0,0.,24.0,0.,24.0,1.,24.0,0.,24.0
1979-08-01 13:20:09.190 ,3,1,0.,24.0,0.,24.0,2.,24.0,0.,24.0
1979-08-01 13:20:33.190 ,3,0,0.,24.0,1.,24.0,0.,24.0,0.,24.0
1979-08-01 13:20:57.190 ,2,1,0.,24.0,0.,24.0,1.,24.0,0.,24.0
1979-08-01 13:21:21.190 ,2,0,1.,24.0,1.,24.0,0.,24.0,0.,24.0
1979-08-01 13:21:45.190 ,1,1,0.,24.0,0.,24.0,0.,24.0,0.,24.0
1979-08-01 13:22:09.190 ,1,0,1.,24.0,0.,24.0,1.,24.0,0.,24.0
1979-08-01 13:22:33.190 ,0,1,0.,24.0,0.,24.0,2.,24.0,0.,24.0
1979-08-01 13:22:57.190 ,0,0,0.,24.0,0.,24.0,0.,24.0,0.,24.0
1979-08-01 13:24:09.190 ,0,0,0.,24.0,1.,24.0,0.,24.0,0.,24.0
1979-08-01 13:24:33.190 ,0,0,0.,24.0,0.,24.0,0.,24.0,0.,24.0
1979-08-01 13:24:57.190 ,2,1,0.,24.0,0.,24.0,2.,24.0,0.,24.0
1979-08-01 13:25:21.190 ,2,0,0.,24.0,0.,24.0,0.,24.0,0.,24.0
1979-08-01 13:25:45.190 ,3,1,0.,24.0,0.,24.0,0.,24.0,0.,24.0
1979-08-01 13:26:09.190 ,3,0,0.,24.0,0.,24.0,0.,24.0,0.,24.0
1979-08-01 13:26:33.190 ,4,1,1.,24.0,0.,24.0,1.,24.0,0.,24.0
1979-08-01 13:26:57.190 ,4,0,0.,24.0,0.,24.0,0.,24.0,0.,24.0
1979-08-01 13:27:21.190 ,5,1,0.,24.0,0.,24.0,2.,24.0,0.,24.0
1979-08-01 13:27:45.190 ,5,0,1.,24.0,0.,24.0,0.,24.0,0.,24.0
1979-08-01 13:28:09.190 ,6,1,2.,24.0,0.,24.0,0.,24.0,0.,24.0
1979-08-01 13:28:33.190 ,6,0,1.,24.0,0.,24.0,0.,24.0,0.,24.0
1979-08-01 13:28:57.190 ,7,1,6.,24.0,0.,24.0,1.,24.0,0.,24.0
1979-08-01 13:29:21.190 ,7,0,33.,24.0,0.,24.0,1.,24.0,0.,24.0
1979-08-01 13:29:45.190 ,7,1,27.,24.0,0.,24.0,1.,24.0,0.,24.0
1979-08-01 13:30:09.190 ,7,0,28.,24.0,0.,24.0,0.,24.0,0.,24.0
1979-08-01 13:30:33.190 ,6,1,24.,24.0,0.,24.0,0.,24.0,0.,24.0
1979-08-01 13:30:57.190 ,6,0,1.,24.0,0.,24.0,0.,24.0,0.,24.0
1979-08-01 13:31:21.190 ,5,1,0.,24.0,0.,24.0,0.,24.0,0.,24.0
1979-08-01 13:31:45.190 ,5,0,0.,24.0,0.,24.0,2.,24.0,0.,24.0
1979-08-01 13:32:09.190 ,4,1,0.,24.0,0.,24.0,1.,24.0,0.,24.0
1979-08-01 13:32:33.190 ,4,0,1.,24.0,0.,24.0,1.,24.0,0.,24.0
1979-08-01 13:32:57.190 ,3,1,0.,24.0,0.,24.0,1.,24.0,0.,24.0
1979-08-01 13:33:21.190 ,3,0,1.,24.0,0.,24.0,0.,24.0,0.,24.0
1979-08-01 13:33:45.190 ,2,1,0.,24.0,0.,24.0,0.,24.0,0.,24.0
1979-08-01 13:34:09.190 ,2,0,0.,24.0,1.,24.0,0.,24.0,0.,24.0
1979-08-01 13:34:33.190 ,1,1,0.,24.0,0.,24.0,1.,24.0,0.,24.0
1979-08-01 13:34:57.190 ,1,0,2.,24.0,0.,24.0,1.,24.0,0.,24.0
1979-08-01 13:35:21.190 ,0,1,0.,24.0,1.,24.0,0.,24.0,0.,24.0
1979-08-01 13:35:45.190 ,0,0,0.,24.0,0.,24.0,0.,24.0,0.,24.0
1979-08-01 13:36:57.190 ,0,0,1.,24.0,0.,24.0,1.,24.0,0.,24.0
1979-08-01 13:37:21.190 ,0,0,0.,24.0,0.,24.0,2.,24.0,0.,24.0
1979-08-01 13:37:45.190 ,2,1,0.,24.0,0.,24.0,1.,24.0,0.,24.0
1979-08-01 13:38:09.190 ,2,0,0.,24.0,0.,24.0,0.,24.0,0.,24.0
1979-08-01 13:38:33.190 ,3,1,0.,24.0,0.,24.0,1.,24.0,0.,24.0
1979-08-01 13:38:57.190 ,3,0,0.,24.0,0.,24.0,1.,24.0,0.,24.0
1979-08-01 13:40:09.190 ,0,0,0.,24.0,0.,24.0,1.,24.0,0.,24.0
1979-08-01 13:40:33.190 ,0,0,2.,24.0,0.,24.0,0.,24.0,0.,24.0
1979-08-01 13:40:57.190 ,6,1,0.,24.0,0.,24.0,1.,24.0,0.,24.0
1979-08-01 13:41:21.190 ,6,0,0.,24.0,0.,24.0,0.,24.0,0.,24.0
1979-08-01 13:41:45.190 ,7,1,6.,24.0,0.,24.0,1.,24.0,0.,24.0
1979-08-01 13:42:09.190 ,7,0,34.,24.0,0.,24.0,1.,24.0,0.,24.0
1979-08-01 13:42:33.190 ,7,1,28.,24.0,0.,24.0,2.,24.0,0.,24.0
1979-08-01 13:42:57.190 ,7,0,40.,24.0,0.,24.0,1.,24.0,0.,24.0
1979-08-01 13:43:21.190 ,6,1,27.,24.0,0.,24.0,1.,24.0,0.,24.0
1979-08-01 13:43:45.190 ,6,0,0.,24.0,0.,24.0,1.,24.0,0.,24.0
1979-08-01 13:44:09.190 ,5,1,0.,24.0,0.,24.0,1.,24.0,0.,24.0
1979-08-01 13:44:33.190 ,5,0,0.,24.0,0.,24.0,0.,24.0,0.,24.0
1979-08-01 13:44:57.190 ,4,1,0.,24.0,0.,24.0,2.,24.0,0.,24.0
1979-08-01 13:45:21.190 ,4,0,0.,24.0,1.,24.0,0.,24.0,0.,24.0
1979-08-01 13:45:45.190 ,3,1,1.,24.0,0.,24.0,2.,24.0,0.,24.0
1979-08-01 13:46:09.190 ,3,0,0.,24.0,0.,24.0,0.,24.0,0.,24.0
1979-08-01 13:46:33.190 ,2,1,0.,24.0,0.,24.0,2.,24.0,0.,24.0
1979-08-01 13:46:57.190 ,2,0,0.,24.0,0.,24.0,0.,24.0,0.,24.0
1979-08-01 13:47:21.180 ,1,1,0.,24.0,0.,24.0,1.,24.0,0.,24.0
1979-08-01 13:47:45.180 ,1,0,1.,24.0,2.,24.0,0.,24.0,1.,24.0
1979-08-01 13:48:09.180 ,0,1,0.,24.0,0.,24.0,2.,24.0,0.,24.0
1979-08-01 13:48:33.180 ,0,0,0.,24.0,0.,24.0,1.,24.0,0.,24.0
1979-08-01 13:48:57.180 ,0,1,0.,24.0,0.,24.0,1.,24.0,0.,24.0
1979-08-01 13:49:21.180 ,0,0,0.,24.0,0.,24.0,0.,24.0,0.,24.0
1979-08-01 13:49:45.180 ,1,1,0.,24.0,1.,24.0,2.,24.0,0.,24.0
1979-08-01 13:50:09.180 ,1,0,0.,24.0,0.,24.0,1.,24.0,0.,24.0
1979-08-01 13:50:33.180 ,2,1,0.,24.0,0.,24.0,3.,24.0,0.,24.0
1979-08-01 13:50:57.180 ,2,0,0.,24.0,1.,24.0,1.,24.0,0.,24.0
1979-08-01 13:51:21.180 ,3,1,0.,24.0,0.,24.0,4.,24.0,0.,24.0
1979-08-01 13:51:45.180 ,3,0,1.,24.0,0.,24.0,2.,24.0,0.,24.0
1979-08-01 13:52:09.180 ,4,1,1.,24.0,0.,24.0,1.,24.0,0.,24.0
1979-08-01 13:52:33.180 ,4,0,0.,24.0,0.,24.0,0.,24.0,0.,24.0
1979-08-01 13:52:57.180 ,5,1,1.,24.0,0.,24.0,1.,24.0,0.,24.0
1979-08-01 13:53:21.180 ,5,0,0.,24.0,0.,24.0,3.,24.0,0.,24.0
1979-08-01 13:53:45.180 ,6,1,1.,24.0,0.,24.0,2.,24.0,0.,24.0
1979-08-01 13:54:09.180 ,6,0,0.,24.0,0.,24.0,0.,24.0,0.,24.0
1979-08-01 13:54:33.180 ,7,0,4.,24.0,1.,24.0,0.,24.0,0.,24.0
1979-08-01 13:54:57.180 ,7,0,25.,24.0,0.,24.0,0.,24.0,0.,24.0
1979-08-01 13:55:21.180 ,5,1,14.,24.0,0.,24.0,2.,24.0,0.,24.0
1979-08-01 13:55:45.180 ,1,1,0.,24.0,0.,24.0,1.,24.0,0.,24.0
1979-08-01 13:56:09.180 ,2,1,0.,24.0,0.,24.0,0.,24.0,0.,24.0
1979-08-01 13:56:33.180 ,6,1,2.,24.0,0.,24.0,2.,24.0,0.,24.0
1979-08-01 13:56:57.180 ,5,1,12.,24.0,0.,24.0,1.,24.0,0.,24.0
1979-08-01 13:57:21.180 ,1,1,1.,24.0,1.,24.0,1.,24.0,0.,24.0
1979-08-01 13:57:45.180 ,2,1,0.,24.0,0.,24.0,2.,24.0,0.,24.0
1979-08-01 13:58:09.180 ,6,1,1.,24.0,0.,24.0,3.,24.0,0.,24.0
1979-08-01 13:58:33.180 ,5,1,15.,24.0,0.,24.0,0.,24.0,0.,24.0
1979-08-01 13:58:57.180 ,1,1,0.,24.0,0.,24.0,1.,24.0,0.,24.0
1979-08-01 13:59:21.180 ,2,1,0.,24.0,0.,24.0,0.,24.0,0.,24.0
1979-08-01 13:59:45.180 ,6,1,0.,24.0,0.,24.0,1.,24.0,0.,24.0
1979-08-01 14:00:57.180 ,0,0,0.,24.0,0.,24.0,0.,24.0,0.,24.0
1979-08-01 14:01:21.180 ,6,1,0.,24.0,0.,24.0,0.,24.0,0.,24.0
1979-08-01 14:01:45.180 ,0,0,,0,,0,,0,,0
1979-08-01 14:02:09.180 ,0,0,,0,,0,,0,,0
1979-08-01 14:02:09.180 ,1,1,1.,24.0,0.,24.0,1.,24.0,0.,24.0
1979-08-01 14:02:33.180 ,2,1,0.,24.0,0.,24.0,2.,24.0,0.,24.0
1979-08-01 14:02:57.180 ,6,1,1.,24.0,0.,24.0,2.,24.0,0.,24.0
1979-08-01 14:04:09.180 ,0,0,0.,24.0,0.,24.0,2.,24.0,0.,24.0
1979-08-01 14:04:33.180 ,6,1,1.,24.0,0.,24.0,1.,24.0,0.,24.0
1979-08-01 14:04:57.180 ,5,1,17.,24.0,0.,24.0,2.,24.0,0.,24.0
1979-08-01 14:05:21.180 ,1,1,2.,24.0,0.,24.0,1.,24.0,0.,24.0
1979-08-01 14:05:45.180 ,0,0,0.,24.0,0.,24.0,0.,24.0,0.,24.0
1979-08-01 14:06:09.180 ,0,0,0.,24.0,0.,24.0,1.,24.0,0.,24.0
1979-08-01 14:06:33.180 ,5,1,12.,24.0,0.,24.0,1.,24.0,0.,24.0
1979-08-01 14:06:57.180 ,5,0,0.,24.0,0.,24.0,0.,24.0,0.,24.0
1979-08-01 14:07:21.180 ,4,1,0.,24.0,0.,24.0,0.,24.0,0.,24.0
1979-08-01 14:07:45.180 ,4,0,0.,24.0,0.,24.0,1.,24.0,0.,24.0
1979-08-01 14:08:09.180 ,3,1,0.,24.0,0.,24.0,1.,24.0,0.,24.0
1979-08-01 14:08:33.180 ,3,0,1.,24.0,0.,24.0,0.,24.0,0.,24.0
1979-08-01 14:08:57.180 ,2,1,0.,24.0,0.,24.0,3.,24.0,0.,24.0
1979-08-01 14:09:21.180 ,2,0,1.,24.0,0.,24.0,0.,24.0,0.,24.0
1979-08-01 14:09:45.180 ,1,1,0.,24.0,0.,24.0,0.,24.0,0.,24.0
1979-08-01 14:10:09.180 ,1,0,0.,24.0,0.,24.0,0.,24.0,0.,24.0
1979-08-01 14:11:21.180 ,0,0,0.,24.0,0.,24.0,0.,24.0,0.,24.0
1979-08-01 14:11:45.180 ,0,0,2.,24.0,0.,24.0,0.,24.0,0.,24.0
1979-08-01 14:12:09.180 ,1,1,0.,24.0,0.,24.0,0.,24.0,0.,24.0
1979-08-01 14:12:33.180 ,1,0,0.,24.0,0.,24.0,1.,24.0,0.,24.0
1979-08-01 14:12:57.180 ,2,1,1.,24.0,0.,24.0,0.,24.0,0.,24.0
1979-08-01 14:13:21.180 ,2,0,0.,24.0,0.,24.0,0.,24.0,0.,24.0
1979-08-01 14:13:45.180 ,3,1,0.,24.0,0.,24.0,1.,24.0,0.,24.0
1979-08-01 14:14:09.180 ,3,0,1.,24.0,0.,24.0,1.,24.0,0.,24.0
1979-08-01 14:14:33.180 ,4,1,0.,24.0,0.,24.0,0.,24.0,0.,24.0
1979-08-01 14:14:57.180 ,4,0,0.,24.0,0.,24.0,1.,24.0,0.,24.0
1979-08-01 14:15:21.180 ,5,1,0.,24.0,0.,24.0,0.,24.0,0.,24.0
1979-08-01 14:15:45.180 ,5,0,0.,24.0,0.,24.0,0.,24.0,0.,24.0
1979-08-01 14:16:09.180 ,6,1,0.,24.0,0.,24.0,1.,24.0,0.,24.0
1979-08-01 14:16:33.180 ,6,0,0.,24.0,0.,24.0,0.,24.0,0.,24.0
1979-08-01 14:16:57.180 ,7,1,3.,24.0,1.,24.0,2.,24.0,0.,24.0
1979-08-01 14:17:21.180 ,7,0,34.,24.0,0.,24.0,1.,24.0,0.,24.0
1979-08-01 14:17:45.180 ,0,0,28.,24.0,0.,24.0,0.,24.0,0.,24.0
1979-08-01 14:18:09.180 ,0,0,0.,24.0,1.,24.0,1.,24.0,0.,24.0
1979-08-01 14:18:33.180 ,0,0,29.,24.0,0.,24.0,0.,24.0,0.,24.0
1979-08-01 14:18:57.180 ,0,0,0.,24.0,0.,24.0,0.,24.0,0.,24.0
1979-08-01 14:19:21.180 ,5,1,1.,24.0,0.,24.0,0.,24.0,0.,24.0
1979-08-01 14:19:45.180 ,5,0,0.,24.0,0.,24.0,1.,24.0,0.,24.0
1979-08-01 14:20:09.180 ,4,1,0.,24.0,0.,24.0,2.,24.0,0.,24.0
1979-08-01 14:20:33.180 ,4,0,0.,24.0,0.,24.0,2.,24.0,0.,24.0
1979-08-01 14:20:57.180 ,3,1,0.,24.0,0.,24.0,0.,24.0,0.,24.0
1979-08-01 14:21:21.180 ,3,0,0.,24.0,0.,24.0,1.,24.0,0.,24.0
1979-08-01 14:21:45.180 ,2,1,0.,24.0,0.,24.0,0.,24.0,0.,24.0
1979-08-01 14:22:09.180 ,2,0,1.,24.0,0.,24.0,1.,24.0,0.,24.0
1979-08-01 14:22:33.180 ,1,1,0.,24.0,1.,24.0,0.,24.0,0.,24.0
1979-08-01 14:22:57.180 ,1,0,1.,24.0,0.,24.0,2.,24.0,0.,24.0
1979-08-01 14:23:21.180 ,0,1,1.,24.0,0.,24.0,0.,24.0,0.,24.0
1979-08-01 14:23:45.180 ,0,0,1.,24.0,0.,24.0,1.,24.0,0.,24.0
1979-08-01 14:24:09.180 ,0,1,0.,24.0,0.,24.0,0.,24.0,0.,24.0
1979-08-01 14:24:33.180 ,0,0,0.,24.0,0.,24.0,1.,24.0,0.,24.0
1979-08-01 14:24:57.180 ,1,1,0.,24.0,0.,24.0,2.,24.0,0.,24.0
1979-08-01 14:25:21.180 ,1,0,1.,24.0,0.,24.0,0.,24.0,0.,24.0
1979-08-01 14:25:45.180 ,2,1,0.,24.0,0.,24.0,0.,24.0,0.,24.0
1979-08-01 14:26:09.180 ,2,0,0.,24.0,0.,24.0,1.,24.0,0.,24.0
1979-08-01 14:26:33.180 ,3,1,0.,24.0,0.,24.0,1.,24.0,0.,24.0
1979-08-01 14:26:57.180 ,3,0,0.,24.0,0.,24.0,0.,24.0,0.,24.0
1979-08-01 14:27:21.180 ,4,1,0.,24.0,0.,24.0,0.,24.0,0.,24.0
1979-08-01 14:27:45.180 ,4,0,0.,24.0,0.,24.0,0.,24.0,0.,24.0
1979-08-01 14:28:09.180 ,5,1,0.,24.0,0.,24.0,1.,24.0,0.,24.0
1979-08-01 14:28:33.180 ,5,0,0.,24.0,0.,24.0,0.,24.0,0.,24.0
1979-08-01 14:28:57.180 ,6,1,0.,24.0,0.,24.0,1.,24.0,0.,24.0
1979-08-01 14:29:21.180 ,6,0,0.,24.0,1.,24.0,1.,24.0,0.,24.0
1979-08-01 14:30:33.180 ,0,0,28.,24.0,0.,24.0,1.,24.0,0.,24.0
1979-08-01 14:30:57.180 ,0,0,31.,24.0,0.,24.0,0.,24.0,0.,24.0
1979-08-01 14:31:21.180 ,6,1,27.,24.0,0.,24.0,1.,24.0,0.,24.0
1979-08-01 14:31:45.180 ,6,0,1.,24.0,0.,24.0,0.,24.0,0.,24.0
1979-08-01 14:32:09.180 ,5,1,2.,24.0,0.,24.0,0.,24.0,0.,24.0
1979-08-01 14:32:33.180 ,5,0,1.,24.0,1.,24.0,0.,24.0,0.,24.0
1979-08-01 14:32:57.180 ,4,1,0.,24.0,0.,24.0,1.,24.0,0.,24.0
1979-08-01 14:33:21.180 ,4,0,0.,24.0,0.,24.0,0.,24.0,0.,24.0
1979-08-01 14:33:45.180 ,3,1,0.,24.0,0.,24.0,1.,24.0,0.,24.0
1979-08-01 14:34:09.180 ,3,0,0.,24.0,0.,24.0,0.,24.0,0.,24.0
1979-08-01 14:34:33.180 ,2,1,0.,24.0,0.,24.0,1.,24.0,0.,24.0
1979-08-01 14:34:57.180 ,2,0,0.,24.0,0.,24.0,0.,24.0,0.,24.0
1979-08-01 14:35:21.180 ,1,1,0.,24.0,0.,24.0,0.,24.0,0.,24.0
1979-08-01 14:35:45.180 ,1,0,0.,24.0,0.,24.0,1.,24.0,2.,24.0
1979-08-01 14:36:09.180 ,0,1,1.,24.0,1.,24.0,0.,24.0,0.,24.0
1979-08-01 14:36:33.180 ,0,0,0.,24.0,0.,24.0,1.,24.0,0.,24.0
1979-08-01 14:36:57.180 ,0,1,0.,24.0,0.,24.0,1.,24.0,0.,24.0
1979-08-01 14:37:21.180 ,0,0,1.,24.0,0.,24.0,0.,24.0,0.,24.0
1979-08-01 14:37:45.180 ,1,1,0.,24.0,0.,24.0,0.,24.0,0.,24.0
1979-08-01 14:38:09.180 ,1,0,0.,24.0,0.,24.0,1.,24.0,0.,24.0
1979-08-01 14:38:33.180 ,2,1,0.,24.0,0.,24.0,1.,24.0,0.,24.0
1979-08-01 14:38:57.180 ,2,0,0.,24.0,0.,24.0,3.,24.0,0.,24.0
1979-08-01 14:39:21.180 ,3,1,0.,24.0,0.,24.0,0.,24.0,0.,24.0
1979-08-01 14:39:45.180 ,3,0,0.,24.0,0.,24.0,1.,24.0,0.,24.0
1979-08-01 14:40:09.180 ,4,1,0.,24.0,0.,24.0,1.,24.0,0.,24.0
1979-08-01 14:40:33.180 ,4,0,2.,24.0,0.,24.0,1.,24.0,0.,24.0
1979-08-01 14:40:57.180 ,5,1,0.,24.0,0.,24.0,0.,24.0,0.,24.0
1979-08-01 14:41:21.180 ,5,0,0.,24.0,0.,24.0,2.,24.0,0.,24.0
1979-08-01 14:41:45.180 ,6,1,0.,24.0,0.,24.0,1.,24.0,0.,24.0
1979-08-01 14:42:09.180 ,6,0,0.,24.0,0.,24.0,0.,24.0,0.,24.0
1979-08-01 14:42:33.180 ,7,0,9.,24.0,0.,24.0,1.,24.0,0.,24.0
1979-08-01 14:42:57.180 ,7,0,36.,24.0,0.,24.0,1.,24.0,0.,24.0
1979-08-01 14:43:21.180 ,5,1,24.,24.0,0.,24.0,0.,24.0,0.,24.0
1979-08-01 14:43:45.180 ,1,1,0.,24.0,0.,24.0,0.,24.0,0.,24.0
1979-08-01 14:44:09.180 ,2,1,0.,24.0,0.,24.0,0.,24.0,0.,24.0
1979-08-01 14:44:33.180 ,6,1,0.,24.0,0.,24.0,2.,24.0,0.,24.0
1979-08-01 14:44:57.180 ,5,1,17.,24.0,0.,24.0,2.,24.0,0.,24.0
1979-08-01 14:45:21.180 ,1,1,0.,24.0,0.,24.0,1.,24.0,0.,24.0
1979-08-01 14:45:45.180 ,2,1,0.,24.0,0.,24.0,0.,24.0,0.,24.0
1979-08-01 14:46:09.180 ,6,1,0.,24.0,0.,24.0,2.,24.0,0.,24.0
1979-08-01 14:46:33.180 ,5,1,16.,24.0,0.,24.0,0.,24.0,0.,24.0
1979-08-01 14:46:57.180 ,1,1,0.,24.0,0.,24.0,1.,24.0,0.,24.0
1979-08-01 14:48:09.180 ,0,0,15.,24.0,1.,24.0,3.,24.0,0.,24.0
1979-08-01 14:48:33.180 ,1,1,1.,24.0,0.,24.0,0.,24.0,0.,24.0
1979-08-01 14:48:57.180 ,2,1,0.,24.0,0.,24.0,1.,24.0,0.,24.0
1979-08-01 14:49:21.180 ,6,1,0.,24.0,0.,24.0,0.,24.0,0.,24.0
1979-08-01 14:49:45.180 ,5,1,20.,24.0,0.,24.0,1.,24.0,0.,24.0
1979-08-01 14:50:09.180 ,1,1,0.,24.0,0.,24.0,2.,24.0,0.,24.0
1979-08-01 14:50:33.180 ,0,0,0.,24.0,0.,24.0,1.,24.0,0.,24.0
1979-08-01 14:50:57.180 ,0,0,0.,24.0,1.,24.0,0.,24.0,0.,24.0
1979-08-01 14:51:21.180 ,0,0,13.,24.0,0.,24.0,2.,24.0,0.,24.0
1979-08-01 14:51:45.180 ,1,1,0.,24.0,0.,24.0,2.,24.0,0.,24.0
1979-08-01 14:52:09.180 ,2,1,0.,24.0,0.,24.0,0.,24.0,0.,24.0
1979-08-01 14:52:33.180 ,6,1,0.,24.0,0.,24.0,0.,24.0,0.,24.0
1979-08-01 14:52:57.180 ,5,1,20.,24.0,0.,24.0,1.,24.0,0.,24.0
1979-08-01 14:53:21.180 ,1,1,0.,24.0,0.,24.0,2.,24.0,0.,24.0
1979-08-01 14:54:33.180 ,0,0,17.,24.0,0.,24.0,0.,24.0,0.,24.0
1979-08-01 14:54:57.180 ,0,0,0.,24.0,0.,24.0,0.,24.0,0.,24.0
1979-08-01 14:55:21.180 ,4,1,1.,24.0,0.,24.0,3.,24.0,0.,24.0
1979-08-01 14:55:45.180 ,4,0,0.,24.0,0.,24.0,0.,24.0,0.,24.0
1979-08-01 14:56:09.180 ,3,1,0.,24.0,0.,24.0,1.,24.0,0.,24.0
1979-08-01 14:56:33.180 ,3,0,0.,24.0,0.,24.0,0.,24.0,0.,24.0
1979-08-01 14:56:57.180 ,2,1,0.,24.0,0.,24.0,2.,24.0,0.,24.0
1979-08-01 14:57:21.180 ,2,0,0.,24.0,0.,24.0,0.,24.0,0.,24.0
1979-08-01 14:57:45.180 ,1,1,0.,24.0,0.,24.0,0.,24.0,0.,24.0
1979-08-01 14:58:09.180 ,1,0,0.,24.0,0.,24.0,1.,24.0,0.,24.0
1979-08-01 14:58:33.180 ,0,1,0.,24.0,0.,24.0,1.,24.0,0.,24.0
1979-08-01 14:58:57.180 ,0,0,0.,24.0,0.,24.0,1.,24.0,0.,24.0